{"data":{"norad_id":47284,"intl_designator":"2020-100AC","name":"ONEWEB-0138","alt_names":[],"object_type":"PAYLOAD","status":"ACTIVE","operator":null,"country":"UK","launch_date":"2020-12-18","launch_site_code":"VOSTO","launch_vehicle":null,"mission":null,"orbit_class":"UNKNOWN","rcs_meters":null,"size_class":null,"mass_kg":null,"dimensions":null,"purposes":["comms"],"wikipedia_slug":null,"has_3d_model":false,"image_url":null,"decayed_at":null,"tle_current":{"epoch":"2026-09-19T12:12:40.794336Z","epoch_age_seconds":100121,"freshness":"FRESH","line1":"1 47284U 20100AC  26262.50880549  .00000070  00000+0  15853-3 0  9996","line2":"2 47284  87.8977 331.9420 0001654  96.5109 263.6207 13.12442412277029","mean_motion":13.12442412,"eccentricity":0.0001654,"inclination_deg":87.8977,"raan_deg":331.942,"arg_perigee_deg":96.5109,"mean_anomaly_deg":263.6207,"bstar":0.00015853,"rev_number":27702,"period_min":109.71909981221,"perigee_km":1212.4698645155,"apogee_km":1214.9812526499,"semimajor_km":7591.8625585827,"source":"CELESTRAK","updated_at":"2026-09-20T09:00:44.581314Z"}}}